CW3319 Weather Reports


time (UTC)temp
F
wind
direction
speed
knots
gust
knots
rain 1hr
in
rain 24hr
in
rain mn
in
humidity
%
barometer
mb
20260507094902 34 236 0.0 0.0 0.00 0.00 0.00 78 1012.6
20260507093902 34 236 0.0 0.0 0.00 0.00 0.00 77 1012.6
20260507092902 34 236 0.0 0.0 0.00 0.00 0.00 76 1012.6
20260507091902 34 236 0.0 0.0 0.00 0.00 0.00 76 1012.6
20260507090902 34 236 0.0 0.0 0.00 0.00 0.00 76 1012.6
20260507085902 34 236 0.0 0.0 0.00 0.00 0.00 76 1012.6
20260507084902 34 236 0.0 0.0 0.00 0.00 0.00 76 1012.6
20260507083902 35 236 0.0 0.0 0.00 0.00 0.00 76 1012.7
20260507082932 35 236 0.0 0.0 0.00 0.00 0.00 76 1012.6
20260507081902 35 236 0.0 0.0 0.00 0.00 0.00 75 1012.6
20260507080902 36 236 0.0 0.0 0.00 0.00 0.00 74 1012.7
20260507075902 36 236 0.0 0.0 0.00 0.00 0.00 74 1012.6
20260507075002 36 236 0.0 0.0 0.00 0.00 0.00 73 1012.7
20260507073932 36 236 0.0 0.0 0.00 0.00 0.00 72 1012.7
20260507072932 36 236 0.0 0.0 0.00 0.00 0.00 72 1012.8
20260507071902 37 236 0.0 0.0 0.00 0.00 0.00 74 1013.0
20260507070902 37 236 0.0 0.0 0.00 0.00 0.00 71 1013.1
20260507065932 37 236 0.0 0.0 0.00 0.00 0.00 71 1013.2
20260507064902 37 236 0.0 0.0 0.00 0.00 0.00 71 1013.2
20260507063902 38 236 0.0 0.0 0.00 0.00 0.00 71 1013.2
20260507062902 38 236 0.0 0.0 0.00 0.00 0.00 71 1013.4
20260507061902 38 236 0.0 0.0 0.00 0.00 0.00 71 1013.4
20260507060932 38 236 0.0 0.0 0.00 0.00 0.00 71 1013.5
20260507055902 38 236 0.0 0.0 0.00 0.00 0.00 71 1013.5
20260507054932 38 236 0.0 0.0 0.00 0.00 0.00 71 1013.5
20260507053902 38 236 0.0 0.0 0.00 0.00 0.00 69 1013.5
20260507052932 39 236 0.0 0.0 0.00 0.00 0.00 70 1013.6
20260507052002 39 236 0.0 0.0 0.00 0.00 0.00 71 1013.6
20260507050932 39 236 0.0 0.0 0.00 0.00 0.00 72 1013.7
20260507045902 39 236 0.0 0.0 0.00 0.00 0.00 72 1013.8
20260507044902 39 236 0.0 0.0 0.00 0.00 0.00 72 1013.7
20260507043902 39 236 0.0 0.0 0.00 0.00 0.00 72 1013.8
20260507042902 39 236 0.0 0.0 0.00 0.00 0.00 72 1014.0
20260507041902 38 236 0.0 0.0 0.00 0.00 0.00 71 1014.0
20260507040932 38 236 0.0 0.0 0.00 0.00 0.00 70 1014.0
20260507035932 38 236 0.0 0.0 0.00 0.00 0.00 69 1014.1
20260507034903 38 236 0.0 0.0 0.00 0.00 0.00 68 1014.1
20260507033901 38 236 0.0 0.0 0.00 0.00 0.00 67 1014.1
20260507032903 38 236 0.0 0.0 0.00 0.00 0.00 68 1014.2
20260507031901 38 236 0.0 0.0 0.00 0.00 0.00 67 1014.2
20260507030902 39 236 0.0 0.0 0.00 0.00 0.00 67 1014.3
20260507025933 39 237 0.0 0.0 0.00 0.00 0.00 66 1014.4
20260507024901 40 237 0.0 0.0 0.00 0.00 0.00 65 1014.3
20260507023902 40 237 0.0 0.0 0.00 0.00 0.00 64 1014.4
20260507022903 41 239 0.0 0.0 0.00 0.00 0.00 64 1014.4
20260507021902 42 264 0.0 0.0 0.00 0.00 0.00 62 1014.3
20260507020902 43 271 0.0 0.0 0.00 0.00 0.00 60 1014.3
20260507015932 43 270 0.0 0.0 0.00 0.00 0.00 58 1014.3
20260507014901 43 274 0.0 0.0 0.00 0.00 0.00 57 1014.2
20260507013903 44 274 0.0 0.0 0.00 0.00 0.00 55 1014.2
20260507012902 44 287 0.0 0.0 0.00 0.00 0.00 55 1014.3
20260507011902 44 277 0.0 0.0 0.00 0.00 0.00 56 1014.3
20260507010902 44 271 0.0 0.0 0.00 0.00 0.00 55 1014.3
20260507005932 44 283 0.0 0.0 0.00 0.00 0.00 54 1014.3
20260507004903 44 267 0.0 0.0 0.00 0.00 0.00 55 1014.2
20260507003902 44 277 0.0 0.0 0.00 0.00 0.00 55 1014.2
20260507002932 44 266 0.0 0.0 0.00 0.00 0.00 54 1014.3
20260507001932 44 266 0.9 1.7 0.00 0.00 0.00 52 1014.4
20260507000902 44 285 1.7 1.7 0.00 0.00 0.00 55 1014.4
20260506235902 44 307 1.7 2.6 0.00 0.00 0.00 54 1014.4
20260506234902 44 292 0.0 0.9 0.00 0.00 0.00 54 1014.4
20260506233902 45 278 0.9 2.6 0.00 0.00 0.00 55 1014.6
20260506232902 45 277 0.0 0.9 0.00 0.00 0.00 53 1014.6
20260506231902 45 269 0.9 2.6 0.00 0.00 0.00 53 1014.6
20260506230902 45 269 0.9 1.7 0.00 0.00 0.00 52 1014.5
20260506225902 45 286 1.7 2.6 0.00 0.00 0.00 54 1014.6
20260506224902 45 274 0.9 0.9 0.00 0.00 0.00 55 1014.7
20260506223902 45 272 1.7 2.6 0.00 0.00 0.00 56 1014.7
20260506222902 44 265 0.9 1.7 0.00 0.00 0.00 54 1014.7
20260506221902 44 260 1.7 3.5 0.00 0.00 0.00 56 1014.8
20260506220902 45 255 2.6 3.5 0.00 0.00 0.00 55 1014.8
20260506215902 44 265 0.0 1.7 0.00 0.00 0.00 55 1014.9
20260506214932 45 277 1.7 2.6 0.00 0.00 0.00 56 1014.9
20260506213902 44 264 0.9 1.7 0.00 0.00 0.00 54 1015.0
20260506212902 44 270 1.7 2.6 0.00 0.00 0.00 54 1015.0
20260506211902 44 279 1.7 3.5 0.00 0.00 0.00 54 1015.0
20260506210902 44 273 2.6 3.5 0.00 0.00 0.00 55 1015.1
20260506205932 44 288 1.7 3.5 0.00 0.00 0.00 55 1015.2
20260506204932 44 308 0.9 1.7 0.00 0.00 0.00 55 1015.2
20260506203902 44 261 2.6 3.5 0.00 0.00 0.00 56 1015.2
20260506202902 44 274 0.0 0.9 0.00 0.00 0.00 53 1015.2
20260506201902 44 275 1.7 2.6 0.00 0.00 0.00 55 1015.2
20260506200932 43 287 1.7 3.5 0.00 0.00 0.00 54 1015.3
20260506194902 44 308 0.9 2.6 0.00 0.00 0.00 53 1015.3
20260506193902 44 282 1.7 2.6 0.00 0.00 0.00 55 1015.3
20260506192902 43 279 1.7 2.6 0.00 0.00 0.00 55 1015.4
20260506192002 43 269 0.9 1.7 0.00 0.00 0.00 54 1015.3
20260506190902 44 293 0.9 2.6 0.00 0.00 0.00 54 1015.4
20260506185902 44 264 1.7 1.7 0.00 0.00 0.00 53 1015.2
20260506184902 43 263 1.7 3.5 0.00 0.00 0.00 55 1015.3
20260506183902 43 287 1.7 3.5 0.00 0.00 0.00 54 1015.4
20260506182902 43 276 1.7 2.6 0.00 0.00 0.00 54 1015.4
20260506181902 44 279 1.7 2.6 0.00 0.00 0.00 55 1015.4
20260506180902 43 298 1.7 3.5 0.00 0.00 0.00 55 1015.4
20260506175902 42 276 1.7 3.5 0.00 0.00 0.00 55 1015.5
20260506174902 42 295 2.6 3.5 0.00 0.00 0.00 56 1015.5
20260506173902 42 286 1.7 2.6 0.00 0.00 0.00 57 1015.5
20260506172901 42 279 1.7 2.6 0.00 0.00 0.00 55 1015.6
20260506171902 42 280 1.7 2.6 0.00 0.00 0.00 56 1015.6
20260506170902 42 267 1.7 2.6 0.00 0.00 0.00 55 1015.8
20260506165902 42 289 1.7 2.6 0.00 0.00 0.00 55 1015.8
20260506164902 41 276 2.6 2.6 0.00 0.00 0.00 56 1015.8
20260506163932 41 276 0.9 3.5 0.00 0.00 0.00 56 1015.8
20260506162902 41 289 1.7 1.7 0.00 0.00 0.00 57 1015.7
20260506161931 41 288 2.6 5.2 0.00 0.00 0.00 58 1015.7
20260506160902 41 282 1.7 2.6 0.00 0.00 0.00 58 1015.8
20260506155902 41 285 0.9 1.7 0.00 0.00 0.00 57 1015.6
20260506154901 41 282 1.7 1.7 0.00 0.00 0.00 56 1015.7
20260506153933 41 286 1.7 2.6 0.00 0.00 0.00 57 1015.5
20260506152901 41 291 0.9 1.7 0.00 0.00 0.00 56 1015.4
20260506151903 41 272 2.6 3.5 0.00 0.00 0.00 56 1015.3
20260506150901 41 279 1.7 3.5 0.00 0.00 0.00 57 1015.4
20260506145902 41 289 0.9 1.7 0.00 0.00 0.00 56 1015.4
20260506144902 41 266 1.7 2.6 0.00 0.00 0.00 57 1015.4
20260506143902 41 296 0.9 1.7 0.00 0.00 0.00 57 1015.4
20260506142902 41 278 0.9 1.7 0.00 0.00 0.00 58 1015.3
20260506141903 41 289 1.7 2.6 0.00 0.00 0.00 59 1015.3
20260506140901 40 275 1.7 2.6 0.00 0.00 0.00 59 1015.4
20260506135902 40 328 0.9 1.7 0.00 0.00 0.00 61 1015.3
20260506134903 40 270 1.7 2.6 0.00 0.00 0.00 63 1015.2
20260506133901 39 289 1.7 2.6 0.00 0.00 0.00 64 1015.2
20260506132932 39 276 0.9 0.9 0.00 0.00 0.00 65 1015.1
20260506131902 38 277 0.0 0.0 0.00 0.00 0.00 66 1015.0
20260506130903 38 298 0.0 0.0 0.00 0.00 0.00 68 1015.0
20260506125901 37 312 0.9 2.6 0.00 0.00 0.00 69 1014.8
20260506124902 36 284 0.0 0.0 0.00 0.00 0.00 71 1014.7
20260506123903 36 283 0.0 0.9 0.00 0.00 0.00 72 1014.6
20260506122901 35 308 0.0 0.0 0.00 0.00 0.00 73 1014.7
20260506121903 35 286 0.0 0.0 0.00 0.00 0.00 73 1014.6
20260506120901 34 325 0.0 0.0 0.00 0.00 0.00 73 1014.4
20260506115901 34 338 0.0 0.0 0.00 0.00 0.00 74 1014.2
20260506114902 34 324 0.0 0.0 0.00 0.00 0.00 74 1014.1
20260506113903 34 324 0.0 0.0 0.00 0.00 0.00 74 1014.0
20260506112901 34 323 0.0 0.0 0.00 0.00 0.00 74 1013.8
20260506111901 34 281 0.0 0.0 0.00 0.00 0.00 75 1013.9
20260506110902 34 281 0.0 0.0 0.00 0.00 0.00 77 1014.0
20260506105902 34 281 0.0 0.0 0.00 0.00 0.00 76 1013.9
20260506104902 34 282 0.0 0.0 0.00 0.00 0.00 76 1013.9
20260506103933 33 282 0.0 0.0 0.00 0.00 0.00 79 1013.8
20260506102901 32 282 0.0 0.0 0.00 0.00 0.00 79 1013.7
20260506101902 32 282 0.0 0.0 0.00 0.00 0.00 78 1013.4
20260506100932 32 282 0.0 0.0 0.00 0.00 0.00 78 1013.4
20260506095902 32 282 0.0 0.0 0.00 0.00 0.00 77 1013.5